Погода в Мордовской Поляне

Россия / Республика Мордовия     53°57′15″N   42°49′50″E
темп.,
°C
ветер,
м/с
пор.,
м/с
влажн.,
%
обл.,
%
осадки,
мм/ч
давл.,
гПа
погр.,
м
13 апреля, вт
вт1300:00+10вюв41387100 0.0 1030281
03:00+9юв3108625 0.0 1030166
06:00+8юв3117694 0.0 1031185
09:00+14ююв5104928 0.0 1030446
12:00+19ююв583254 0.0 1029964
15:00+20ююв572852 0.0 10281590
18:00+17юв4942100 0.0 1027257
21:00+12юв3115599 0.0 1028212
14 апреля, ср
ср1400:00+9юв3106690 0.0 1027160
03:00+8юв397399 0.0 1026156
06:00+7юв397136 0.0 1025150
09:00+13юв474911 0.0 1025395
12:00+17юв46347 0.0 10231045
15:00+19юв562948 0.0 10211556
18:00+16юв374499 0.0 1020175
21:00+11юв38580 0.0 1021132
15 апреля, чт
чт1500:00+9юв35650 0.0 102081
03:00+8юв22737 0.0 102030
06:00+7юв2377100 0.0 101955
09:00+14юв3457100 0.0 1019334
12:00+18юв344497 0.0 1017962
15:00+20вюв3335100 0.0 10161656
18:00+17в235088 0.0 101653
21:00+13в356391 0.0 101675
16 апреля, пт
пт1600:00+11в386975 0.0 1016134
03:00+9в3475100 0.0 101671
06:00+9всв258045 0.0 101696
09:00+15всв475764 0.1 1016440
12:00+18всв454881 0.2 10171025
15:00+19всв454229 0.2 10171698
18:00+16св595649 0.0 1018591
21:00+11св6127631 0.2 1020573
17 апреля, сб
сб1700:00+9св512835 0.0 1021514
03:00+7св5118497 0.0 1022465
06:00+7св5118242 0.0 1023513
09:00+9всв710575 0.0 1024985
12:00+12всв79362 0.0 10251516
15:00+12св79340 0.0 10251656
18:00+10св69430 0.0 10261297
21:00+6св512480 0.0 1029680